Location: Monroe
(41.9160°N, 83.3980°W)
Time: 19:38:58
(UTC-04:00)

ISS - All Passes

Search period start: 30 October 2014 00:00
Search period end: 08 November 2014 23:00
Orbit: 412 x 417 km, 51.6° (Epoch: 30 October)

Date Brightness Start Highest point End Pass type
(mag) Time Alt. Az. Time Alt. Az. Time Alt. Az.
30 Oct - 11:28:28 10° SW 11:31:45 60° SE 11:35:02 10° ENE daylight
30 Oct - 13:05:49 10° W 13:08:39 25° NNW 13:11:30 10° NE daylight
30 Oct - 14:44:07 10° NW 14:46:12 15° N 14:48:16 10° NE daylight
30 Oct - 16:20:55 10° NW 16:23:45 25° NNE 16:26:34 10° ENE daylight
30 Oct - 17:57:21 10° WNW 18:00:40 63° SW 18:03:58 10° SE daylight
31 Oct - 10:39:40 10° SSW 10:42:41 33° SE 10:45:44 10° ENE daylight
31 Oct - 12:16:17 10° W 12:19:22 34° NNW 12:22:28 10° NE daylight
31 Oct - 13:54:38 10° NW 13:56:47 16° N 13:58:57 10° NE daylight
31 Oct - 15:31:52 10° NW 15:34:25 20° NNE 15:36:57 10° ENE daylight
31 Oct - 17:08:12 10° NW 17:11:32 74° NNE 17:14:52 10° ESE daylight
31 Oct - 18:46:08 10° W 18:47:50 13° SW 18:49:31 10° SSW daylight
01 Nov - 09:51:14 10° S 09:53:40 19° SE 09:56:07 10° E daylight
01 Nov - 11:26:51 10° WSW 11:30:06 53° NNW 11:33:23 10° NE daylight
01 Nov - 13:05:00 10° NW 13:07:22 18° N 13:09:43 10° NE daylight
01 Nov - 14:42:42 10° NW 14:45:00 17° N 14:47:17 10° NE daylight
01 Nov - 16:19:04 10° NW 16:22:18 45° NNE 16:25:32 10° ESE daylight
01 Nov - 17:56:07 10° W 17:58:49 23° SW 18:01:32 10° S daylight
02 Nov - 08:03:45 10° SE 08:04:40 11° SE 08:05:35 10° ESE daylight
02 Nov - 09:37:33 10° SW 09:40:52 88° NW 09:44:12 10° NE daylight
02 Nov - 11:15:18 10° WNW 11:17:55 21° NNW 11:20:33 10° NE daylight
02 Nov - 12:53:24 10° NW 12:55:31 16° N 12:57:38 10° NE daylight
02 Nov - 14:29:57 10° NW 14:32:58 31° NNE 14:35:59 10° E daylight
02 Nov - 16:06:34 10° WNW 16:09:43 40° SW 16:12:52 10° SSE daylight
03 Nov - 08:48:25 10° SW 08:51:38 52° SE 08:54:53 10° ENE daylight
03 Nov - 10:25:35 10° W 10:28:29 27° NNW 10:31:23 10° NE daylight
03 Nov - 12:03:55 10° NW 12:05:59 15° N 12:08:04 10° NE daylight
03 Nov - 13:40:48 10° NW 13:43:33 23° NNE 13:46:18 10° ENE daylight
03 Nov - 15:17:11 10° WNW 15:20:31 74° SW 15:23:50 10° SE daylight
04 Nov - 07:59:32 10° SSW 08:02:27 29° SE 08:05:22 10° ENE daylight
04 Nov - 09:35:55 10° W 09:39:03 38° NNW 09:42:12 10° NE daylight
04 Nov - 11:14:14 10° NW 11:16:25 16° N 11:18:37 10° NE daylight
04 Nov - 12:51:34 10° NW 12:54:02 19° NNE 12:56:30 10° ENE daylight
04 Nov - 14:27:53 10° NW 14:31:12 65° NNE 14:34:31 10° ESE daylight
04 Nov - 16:05:29 10° W 16:07:32 15° SW 16:09:35 10° S daylight
05 Nov - 07:11:05 10° S 07:13:16 17° SE 07:15:28 10° E daylight
05 Nov - 08:46:21 10° WSW 08:49:38 60° NNW 08:52:56 10° NE daylight
05 Nov - 10:24:25 10° WNW 10:26:50 18° NNW 10:29:15 10° NE daylight
05 Nov - 12:02:14 10° NW 12:04:27 16° N 12:06:40 10° NE daylight
05 Nov - 13:38:37 10° NW 13:41:48 40° NNE 13:44:58 10° E daylight
05 Nov - 15:15:30 10° WNW 15:18:22 27° SW 15:21:12 10° SSE daylight
06 Nov - 07:56:56 10° SW 08:00:15 80° SE 08:03:34 10° ENE daylight
06 Nov - 09:34:32 10° WNW 09:37:14 22° NNW 09:39:56 10° NE daylight
06 Nov - 11:12:43 10° NW 11:14:48 15° N 11:16:53 10° NE daylight
06 Nov - 12:49:20 10° NW 12:52:17 28° NNE 12:55:13 10° E daylight
06 Nov - 14:25:52 10° WNW 14:29:05 47° SW 14:32:17 10° SE daylight
07 Nov - 07:07:43 10° SSW 07:10:53 44° SE 07:14:04 10° ENE daylight
07 Nov - 08:44:41 10° W 08:47:39 29° NNW 08:50:37 10° NE daylight
07 Nov - 10:23:01 10° NW 10:25:06 15° N 10:27:11 10° NE daylight
07 Nov - 12:00:01 10° NW 12:02:41 22° NNE 12:05:20 10° ENE daylight
07 Nov - 13:36:21 10° NW 13:39:42 86° SW 13:43:01 10° SE daylight
07 Nov - 15:15:43 10° SW 15:15:51 10° SW 15:15:59 10° SW daylight
08 Nov - 06:18:47 10° SSW 06:21:32 25° SE 06:24:18 10° ENE visible
08 Nov - 07:54:53 10° WSW 07:58:04 43° NNW 08:01:16 10° NE daylight
08 Nov - 09:33:08 10° NW 09:35:23 17° N 09:37:37 10° NNE daylight
08 Nov - 11:10:36 10° NW 11:13:00 18° NNE 11:15:22 10° ENE daylight
08 Nov - 12:46:55 10° NW 12:50:12 56° NNE 12:53:28 10° ESE daylight
08 Nov - 14:24:15 10° W 14:26:36 18° SW 14:28:56 10° S daylight
